Location: Newark
(45.2111°N, 1.9889°E)
Time: 17:20:46
(UTC+00:00)

ISS - Visible Passes

Search period start: 06 May 2021 00:00
Search period end: 16 May 2021 00:00
Orbit: 418 x 421 km, 51.6° (Epoch: 05 May)

Date Brightness Start Highest point End Pass type
(mag) Time Alt. Az. Time Alt. Az. Time Alt. Az.
06 May -0.9 00:48:19 14° ENE 00:48:19 14° ENE 00:48:51 10° ENE visible
06 May -2.4 02:21:16 26° WNW 02:22:29 35° NNW 02:25:38 10° NE visible
06 May -1.7 03:56:57 10° NW 03:59:54 27° N 04:02:51 10° ENE visible
07 May -2.6 01:35:21 42° N 01:35:21 42° N 01:38:14 10° NE visible
07 May -1.7 03:09:24 10° WNW 03:12:18 26° N 03:15:14 10° ENE visible
08 May -1.4 00:49:24 23° NE 00:49:24 23° NE 00:50:49 10° ENE visible
08 May -1.8 02:22:20 13° WNW 02:24:43 27° N 02:27:40 10° NE visible
09 May -2.0 01:36:22 27° NW 01:37:08 30° N 01:40:10 10° NE visible
09 May -1.8 03:11:32 10° NW 03:14:34 29° N 03:17:35 10° ENE visible
10 May -1.8 00:50:21 30° NNE 00:50:21 30° NNE 00:52:42 10° NE visible
10 May -1.6 02:24:02 10° NW 02:26:58 27° N 02:29:55 10° ENE visible
11 May -1.1 00:04:19 17° NE 00:04:19 17° NE 00:05:17 10° NE visible
11 May -1.6 01:37:15 15° NW 01:39:22 26° N 01:42:18 10° ENE visible
11 May -2.5 03:13:28 10° NW 03:16:44 43° NNE 03:19:59 10° E visible
12 May -1.7 00:51:09 25° NNW 00:51:45 27° N 00:54:42 10° NE visible
12 May -2.0 02:26:02 10° NW 02:29:11 34° NNE 02:32:19 10° E visible
13 May -1.6 00:04:59 26° NNE 00:04:59 26° NNE 00:07:12 10° NE visible
13 May -1.7 01:38:34 10° NW 01:41:36 29° N 01:44:37 10° ENE visible
13 May -3.7 03:15:21 10° WNW 03:18:44 86° NNE 03:22:06 10° ESE visible
13 May -1.2 23:18:34 18° NE 23:18:34 18° NE 23:19:43 10° NE visible
14 May -1.6 00:51:27 12° NW 00:54:00 27° N 00:56:57 10° ENE visible
14 May -3.2 02:27:54 10° WNW 02:31:15 59° NNE 02:34:36 10° ESE visible
14 May -3.3 20:49:07 10° SSW 20:52:14 36° SE 20:55:22 10° ENE visible
14 May -2.6 22:25:46 10° W 22:29:01 44° NNW 22:32:17 10° NE visible
15 May -1.5 00:03:28 10° WNW 00:06:22 26° N 00:09:18 10° ENE visible
15 May -2.5 01:40:29 10° NW 01:43:44 43° NNE 01:46:59 10° E visible
15 May -3.3 03:17:21 10° WNW 03:20:32 38° SW 03:23:42 10° SSE visible
15 May -2.6 20:02:11 10° SSW 20:04:54 23° SE 20:07:39 10° E visible
15 May -3.3 21:38:10 10° WSW 21:41:30 61° NNW 21:44:51 10° ENE visible
15 May -1.6 23:15:49 10° WNW 23:18:45 27° N 23:21:42 10° NE visible
